Date,TemperatureHighF,TemperatureAvgF,TemperatureLowF,DewpointHighF,DewpointAvgF,DewpointLowF,HumidityHigh,HumidityAvg,HumidityLow,PressureMaxIn,PressureMinIn,WindSpeedMaxMPH,WindSpeedAvgMPH,GustSpeedMaxMPH,PrecipitationSumIn
2013-7-1,69.6,65.0,61.2,64.3,58.1,53.9,93,79,70,30.00,29.88,6,1,17,0.17
2013-7-2,72.8,65.0,59.8,66.4,61.4,55.0,96,88,75,30.02,29.96,5,1,10,0.38
2013-7-3,80.3,67.9,64.3,68.0,64.5,62.8,97,90,57,30.06,29.98,4,1,7,0.04
2013-7-4,79.9,72.2,63.5,67.3,62.9,57.9,95,74,53,30.12,30.05,2,0,4,0.00
2013-7-5,77.6,70.6,66.9,68.3,66.4,65.0,95,87,66,30.09,30.03,0,0,3,0.00
2013-7-6,78.8,72.2,67.8,70.9,67.9,65.9,95,87,68,30.09,29.98,2,0,5,0.31
2013-7-7,80.9,72.5,66.3,70.2,67.5,64.5,95,85,65,30.06,29.98,3,0,6,0.03
2013-7-8,82.8,74.6,66.9,73.8,69.8,62.8,96,86,66,30.05,29.95,4,0,22,1.01
2013-7-9,87.4,80.2,74.9,74.8,72.6,70.0,89,78,57,30.00,29.89,6,1,10,0.01
2013-7-10,85.1,77.2,63.7,76.0,69.0,56.4,94,76,58,29.96,29.78,7,1,13,0.15
2013-7-11,79.6,69.8,60.9,59.6,56.1,52.0,85,64,39,30.05,29.95,6,1,10,0.00
2013-7-12,79.6,69.5,57.8,62.4,58.1,54.8,94,69,46,30.12,30.03,6,0,11,0.00
2013-7-13,83.2,72.7,60.2,67.3,62.8,57.3,94,73,51,30.15,30.09,7,1,10,0.00
2013-7-14,88.0,77.3,65.8,72.3,68.3,63.7,95,76,54,30.20,30.15,6,1,10,0.00
2013-7-15,92.1,81.5,71.1,73.1,70.6,68.7,95,72,50,30.26,30.19,4,0,5,0.00
2013-7-16,91.8,82.6,72.1,72.6,70.1,67.3,92,68,45,30.30,30.23,4,0,4,0.00
2013-7-17,92.3,87.9,79.0,72.3,69.8,67.2,79,56,45,30.29,30.15,4,1,6,0.00
2013-7-18,93.6,83.9,74.2,74.1,71.5,69.1,89,68,46,30.16,29.97,4,0,7,0.00
2013-7-19,92.5,84.6,76.8,73.0,71.7,69.8,83,67,49,29.97,29.77,5,1,10,0.00
2013-7-20,87.2,79.8,73.0,73.8,69.2,62.1,95,72,44,29.88,29.73,7,0,10,0.21
2013-7-21,87.2,77.0,66.0,69.2,65.3,62.3,90,69,44,29.95,29.86,5,1,7,0.00
2013-7-22,80.7,72.5,65.6,69.4,66.2,63.5,95,81,60,29.89,29.75,6,1,7,0.30
2013-7-23,84.7,73.6,62.4,68.5,63.4,52.9,94,73,47,29.85,29.68,7,1,13,0.00
2013-7-24,73.9,64.0,53.5,55.3,51.2,48.4,84,65,45,30.02,29.85,10,1,10,0.00
2013-7-25,77.9,66.1,52.8,57.1,53.3,49.9,95,67,39,30.10,30.02,2,0,5,0.00
2013-7-26,79.9,69.1,55.7,60.8,56.4,53.7,94,67,46,30.08,29.90,3,0,6,0.00
2013-7-27,78.3,68.2,57.0,65.5,59.0,50.3,90,74,42,29.90,29.76,6,1,12,0.03
2013-7-28,68.3,60.1,51.9,50.7,49.1,47.0,91,69,47,30.00,29.86,6,1,9,0.00
2013-7-29,73.3,62.2,52.2,55.6,52.1,48.5,90,71,50,30.17,30.00,4,0,11,0.00
2013-7-30,79.2,67.6,53.2,60.5,56.1,51.5,96,70,45,30.21,30.09,3,0,5,0.00
2013-7-31,73.2,68.9,65.3,67.2,64.1,60.3,93,85,77,30.08,29.90,3,0,5,0.00